Weather History for Campo, CA

Change the Weather History Date:

Saturday, October 22, 2011

  Actual Average Record
Temperature  
Mean Temperature 66 °F 59 °F  
Max Temperature 85 °F 78 °F 96 °F (2003)
Min Temperature 46 °F 41 °F 31 °F (1966)
Degree Days  
Heating Degree Days 0 6  
Month to date heating degree days 82 96  
Since 1 July heating degree days 119 146  
Cooling Degree Days 1 0  
Month to date cooling degree days 36 27  
Year to date cooling degree days 730 838  
Growing Degree Days 16 (Base 50)    
Moisture  
Dew Point 40 °F    
Average Humidity 50    
Maximum Humidity 80    
Minimum Humidity 20    
Precipitation  
Precipitation 0.00 in 0.03 in 0.14 in (1976)
Month to date precipitation 0.38 0.54  
Year to date precipitation 8.55 12.05  
Since 1 July precipitation 0.80 1.90  
Snow  
Snow 0.00 in - - ()
Month to date snowfall 0.0  
Year to date snowfall 0.0  
Since 1 July snowfall 0.0  
Snow Depth 0.00 in    
Sea Level Pressure  
Sea Level Pressure 29.96 in    
Wind  
Wind Speed 9 mph (NE)    
Max Wind Speed 22 mph    
Max Gust Speed 28 mph    
T = Trace of Precipitation, MM = Missing Value Source: NWS Daily Summary

Daily Weather History Graph

Daily Weather History Graph

Search for Another Location

Airport:

Trip Planner

Search our weather history database for the weather conditions in past years. The results will help you decide how hot, cold, wet, or windy it might be!

Date:

Astronomy

Oct. 22, 2011 Rise Set
Actual Time 6:55 AM PDT 6:05 PM PDT
Civil Twilight 6:30 AM PDT 6:30 PM PDT
Nautical Twilight 6:01 AM PDT 6:58 PM PDT
Astronomical Twilight 5:32 AM PDT 7:27 PM PDT
Moon 2:13 AM PDT (10/22) 3:12 PM PDT (10/22)
Length of Visible Light 12h 00m
Length of Day
11h 10m
Waning Crescent, 22% of the Moon is Illuminated
Oct 22
Waning Crescent
Oct 26
New
Nov 2
First Quarter
Nov 10
Full
Nov 18
Last Quarter

Hourly Weather History & Observations

Time (PDT) Temp. Dew Point Humidity Pressure Visibility Wind Dir Wind Speed Gust Speed Precip Events Conditions
12:52 AM 51.1 °F 43.0 °F 74% 29.96 in - Calm Calm - N/A   Unknown
1:52 AM 52.0 °F 43.0 °F 71% 29.95 in - North 3.5 mph - N/A   Unknown
2:52 AM 50.0 °F 42.1 °F 74% 29.96 in - Calm Calm - N/A   Unknown
3:52 AM 48.9 °F 42.1 °F 77% 29.95 in - NNE 4.6 mph - N/A   Unknown
4:52 AM 51.1 °F 42.1 °F 71% 29.95 in - Calm Calm - N/A   Unknown
5:52 AM 51.1 °F 41.0 °F 68% 29.96 in - Calm Calm - N/A   Unknown
6:52 AM 55.9 °F 41.0 °F 57% 29.97 in - Calm Calm - N/A   Unknown
7:52 AM 64.0 °F 41.0 °F 43% 29.98 in - East 3.5 mph - N/A   Unknown
8:52 AM 77.0 °F 39.9 °F 26% 29.98 in - ENE 15.0 mph - N/A   Unknown
9:52 AM 79.0 °F 37.9 °F 23% 29.99 in - ENE 18.4 mph - N/A   Unknown
10:52 AM 82.0 °F 39.0 °F 22% 29.99 in - NE 18.4 mph 26.5 mph N/A   Unknown
11:52 AM 82.9 °F 43.0 °F 24% 29.97 in - ENE 18.4 mph 27.6 mph N/A   Unknown
12:52 PM 82.4 °F 42.8 °F 25% 30.03 in - East 17.3 mph 24.2 mph N/A   Unknown
1:52 PM 84.0 °F 39.9 °F 21% 29.93 in - ENE 17.3 mph 23.0 mph N/A   Unknown
2:52 PM 84.0 °F 39.0 °F 20% 29.92 in - ENE 16.1 mph 24.2 mph N/A   Unknown
3:52 PM 82.9 °F 39.0 °F 21% 29.92 in - ENE 13.8 mph 20.7 mph N/A   Unknown
4:52 PM 82.0 °F 37.0 °F 20% 29.91 in - ENE 13.8 mph 20.7 mph N/A   Unknown
5:52 PM 79.0 °F 37.9 °F 23% 29.92 in - NE 8.1 mph - N/A   Unknown
6:52 PM 72.0 °F 39.0 °F 30% 29.94 in - NE 9.2 mph - N/A   Unknown
7:52 PM 66.0 °F 39.0 °F 37% 29.95 in - ENE 10.4 mph - N/A   Unknown
8:52 PM 59.0 °F 39.0 °F 48% 29.95 in - NE 4.6 mph - N/A   Unknown
9:52 PM 60.1 °F 39.0 °F 46% 29.95 in - NE 5.8 mph - N/A   Unknown
10:52 PM 55.0 °F 37.9 °F 53% 29.96 in - NE 4.6 mph - N/A   Unknown
11:52 PM 55.0 °F 37.9 °F 53% 29.94 in - NNE 4.6 mph - N/A   Unknown